DEPWI EDDH-EPGD

Flight info

Callsign DEPWI
Flight time N/A
Altitude 3000
Route VFR
Aircraft DA40/L-SDE3FGHIRWY/LB1

Departure

Time 2026-05-04 17:48
Airport Hamburg Helmut Schmidt Airport (EDDH)

Arrival

Time N/A
Airport Gdańsk Lech Wałęsa Airport (EPGD)
Time Latitude Longitude Altitude Speed Heading
2026-05-04 17:36 53.62700 9.98705 41 ft 0 kts 192°
2026-05-04 17:43 53.62691 9.98694 41 ft 6 kts 238°
2026-05-04 17:44 53.62731 9.98638 41 ft 12 kts 10°
2026-05-04 17:44 53.62795 9.98765 41 ft 17 kts 49°
2026-05-04 17:44 53.62879 9.98932 41 ft 21 kts 48°
2026-05-04 17:44 53.62967 9.99112 41 ft 19 kts 48°
2026-05-04 17:45 53.63064 9.99282 41 ft 22 kts 25°
2026-05-04 17:45 53.63149 9.99319 41 ft 10 kts 14°
2026-05-04 17:45 53.63230 9.99350 41 ft 14 kts 10°
2026-05-04 17:45 53.63346 9.99332 41 ft 19 kts 329°
2026-05-04 17:46 53.63525 9.99177 42 ft 46 kts 333°
2026-05-04 17:46 53.63904 9.98859 91 ft 69 kts 330°
2026-05-04 17:46 53.64392 9.98569 177 ft 77 kts 345°
2026-05-04 17:46 53.64915 9.98431 307 ft 75 kts 346°
2026-05-04 17:47 53.65446 9.98307 374 ft 82 kts 352°
2026-05-04 17:47 53.66036 9.98245 352 ft 88 kts 350°
2026-05-04 17:47 53.66647 9.98195 417 ft 84 kts 352°
2026-05-04 17:47 53.67185 9.98293 534 ft 79 kts 20°
2026-05-04 17:48 53.67700 9.98639 654 ft 81 kts 17°
2026-05-04 17:48 53.68229 9.99004 779 ft 82 kts 15°
2026-05-04 17:48 53.68758 9.99391 906 ft 83 kts 16°
2026-05-04 17:48 53.69289 9.99785 1038 ft 83 kts 15°
2026-05-04 17:49 53.69831 10.00127 1168 ft 83 kts 19°
2026-05-04 17:49 53.70371 10.00494 1294 ft 83 kts 17°
2026-05-04 17:49 53.70899 10.00867 1428 ft 83 kts 17°
2026-05-04 17:49 53.71438 10.01266 1555 ft 86 kts 19°
2026-05-04 17:50 53.71992 10.01633 1680 ft 84 kts 18°
2026-05-04 17:50 53.72507 10.02031 1803 ft 79 kts 16°
2026-05-04 17:50 53.73017 10.02413 1926 ft 82 kts 17°
2026-05-04 17:50 53.73549 10.02789 2053 ft 83 kts 17°
2026-05-04 17:51 53.74077 10.03175 2178 ft 83 kts 18°
2026-05-04 17:51 53.74608 10.03562 2305 ft 84 kts 17°
2026-05-04 17:51 53.75148 10.03959 2434 ft 85 kts 18°
2026-05-04 17:51 53.75694 10.04368 2555 ft 86 kts 17°
2026-05-04 17:52 53.76279 10.04828 2526 ft 106 kts 18°
2026-05-04 17:52 53.76996 10.05339 2463 ft 116 kts 17°
2026-05-04 17:52 53.77742 10.05869 2459 ft 117 kts 16°
2026-05-04 17:52 53.78497 10.06404 2460 ft 117 kts 18°
2026-05-04 17:53 53.79257 10.06930 2457 ft 118 kts 18°
2026-05-04 17:53 53.80011 10.07466 2457 ft 117 kts 17°
2026-05-04 17:53 53.80768 10.07997 2459 ft 118 kts 16°
2026-05-04 17:53 53.81530 10.08523 2459 ft 119 kts 18°
2026-05-04 17:54 53.82306 10.09046 2462 ft 122 kts 18°
2026-05-04 17:54 53.83094 10.09570 2458 ft 121 kts 17°
2026-05-04 17:54 53.83876 10.10097 2458 ft 121 kts 18°
2026-05-04 17:54 53.84608 10.10787 2456 ft 123 kts 37°
2026-05-04 17:55 53.85245 10.11711 2457 ft 122 kts 37°
2026-05-04 17:55 53.85899 10.12633 2458 ft 122 kts 36°
2026-05-04 17:55 53.86559 10.13544 2460 ft 123 kts 36°
2026-05-04 17:55 53.87185 10.14545 2456 ft 126 kts 55°
2026-05-04 17:56 53.87558 10.15901 2459 ft 127 kts 63°
2026-05-04 17:56 53.87933 10.17271 2457 ft 129 kts 63°
2026-05-04 17:56 53.88307 10.18652 2461 ft 129 kts 65°
2026-05-04 17:56 53.88495 10.20141 2458 ft 130 kts 82°
2026-05-04 17:57 53.88618 10.21649 2458 ft 129 kts 81°
2026-05-04 17:57 53.88747 10.23159 2457 ft 130 kts 81°
2026-05-04 17:57 53.88879 10.24653 2461 ft 130 kts 81°
2026-05-04 17:57 53.89010 10.26183 2456 ft 131 kts 81°
2026-05-04 17:58 53.89145 10.27700 2455 ft 129 kts 81°
2026-05-04 17:58 53.89183 10.29190 2449 ft 126 kts 102°
2026-05-04 17:58 53.88977 10.30630 2443 ft 125 kts 104°
2026-05-04 17:58 53.88779 10.32048 2443 ft 123 kts 105°
2026-05-04 17:59 53.88586 10.33477 2443 ft 125 kts 104°
2026-05-04 17:59 53.88388 10.34918 2441 ft 125 kts 104°
2026-05-04 17:59 53.87987 10.37746 2445 ft 122 kts 104°
2026-05-04 18:00 53.87796 10.39152 2444 ft 123 kts 104°
2026-05-04 18:00 53.87603 10.40585 2443 ft 123 kts 104°
2026-05-04 18:00 53.87412 10.41973 2443 ft 121 kts 104°
2026-05-04 18:00 53.87219 10.43374 2444 ft 123 kts 104°
2026-05-04 18:01 53.87022 10.44786 2445 ft 123 kts 104°
2026-05-04 18:01 53.86821 10.46186 2448 ft 123 kts 104°
2026-05-04 18:01 53.86617 10.47595 2498 ft 121 kts 104°
2026-05-04 18:02 53.86252 10.50201 2688 ft 110 kts 104°
2026-05-04 18:02 53.86068 10.51455 2782 ft 109 kts 104°
2026-05-04 18:02 53.85891 10.52686 2873 ft 109 kts 104°
2026-05-04 18:02 53.85709 10.53938 2944 ft 112 kts 104°
2026-05-04 18:03 53.85516 10.55262 2950 ft 118 kts 104°
2026-05-04 18:03 53.85318 10.56638 2957 ft 122 kts 104°
2026-05-04 18:03 53.85113 10.58053 2958 ft 124 kts 104°
2026-05-04 18:03 53.84955 10.59501 2961 ft 125 kts 97°
2026-05-04 18:04 53.84848 10.60982 2959 ft 127 kts 97°
2026-05-04 18:04 53.84772 10.61971 2955 ft 128 kts 97°
2026-05-04 18:04 53.84542 10.64939 2957 ft 127 kts 97°
2026-05-04 18:05 53.84430 10.66424 2956 ft 127 kts 97°
2026-05-04 18:05 53.84319 10.67914 2956 ft 128 kts 97°
2026-05-04 18:05 53.84208 10.69409 2954 ft 128 kts 97°
2026-05-04 18:05 53.84105 10.70893 2954 ft 127 kts 97°
2026-05-04 18:06 53.83884 10.73860 2955 ft 127 kts 97°
2026-05-04 18:06 53.83779 10.75349 2953 ft 127 kts 97°
2026-05-04 18:06 53.83669 10.76829 2953 ft 126 kts 97°
2026-05-04 18:07 53.83564 10.78309 2950 ft 126 kts 97°
2026-05-04 18:07 53.83454 10.79770 2952 ft 125 kts 97°
2026-05-04 18:07 53.83353 10.81234 2952 ft 125 kts 97°
2026-05-04 18:07 53.83242 10.82700 2953 ft 126 kts 97°
2026-05-04 18:08 53.83134 10.84151 2951 ft 126 kts 97°
2026-05-04 18:08 53.83027 10.85616 2951 ft 125 kts 97°
2026-05-04 18:08 53.82918 10.87076 2951 ft 125 kts 97°
2026-05-04 18:08 53.82809 10.88548 2949 ft 126 kts 97°
2026-05-04 18:09 53.82671 10.91488 2950 ft 125 kts 90°
2026-05-04 18:09 53.82643 10.94446 2954 ft 126 kts 90°
2026-05-04 18:10 53.82627 10.95935 2955 ft 127 kts 90°
2026-05-04 18:10 53.82615 10.97430 2957 ft 127 kts 90°
2026-05-04 18:10 53.82601 10.98924 2957 ft 127 kts 90°
2026-05-04 18:10 53.82590 11.00408 2956 ft 126 kts 90°
2026-05-04 18:11 53.82579 11.01892 2955 ft 126 kts 90°
2026-05-04 18:11 53.82562 11.03381 2952 ft 127 kts 90°
2026-05-04 18:11 53.82549 11.04863 2955 ft 126 kts 90°
2026-05-04 18:11 53.82538 11.06345 2954 ft 126 kts 90°
2026-05-04 18:12 53.82525 11.07809 2952 ft 126 kts 90°
2026-05-04 18:12 53.82513 11.09291 2952 ft 126 kts 90°
2026-05-04 18:12 53.82501 11.10770 2951 ft 126 kts 90°
2026-05-04 18:12 53.82488 11.12247 2949 ft 125 kts 90°
2026-05-04 18:13 53.82477 11.13710 2947 ft 124 kts 90°
2026-05-04 18:13 53.82459 11.15169 2948 ft 125 kts 90°
2026-05-04 18:13 53.82427 11.18124 2947 ft 125 kts 90°
2026-05-04 18:14 53.82412 11.19594 2949 ft 125 kts 90°
2026-05-04 18:14 53.82397 11.21063 2950 ft 125 kts 91°
2026-05-04 18:14 53.82384 11.22535 2950 ft 125 kts 90°
2026-05-04 18:15 53.82354 11.25493 2952 ft 126 kts 91°
2026-05-04 18:15 53.82324 11.28459 2954 ft 127 kts 90°
2026-05-04 18:15 53.82314 11.29956 2954 ft 128 kts 90°
2026-05-04 18:16 53.82296 11.31456 2954 ft 127 kts 90°
2026-05-04 18:16 53.82275 11.32944 2954 ft 127 kts 91°
2026-05-04 18:16 53.82262 11.34429 2952 ft 126 kts 91°
2026-05-04 18:17 53.82229 11.37399 2952 ft 126 kts 90°
2026-05-04 18:17 53.82216 11.38879 2953 ft 126 kts 91°
2026-05-04 18:17 53.82202 11.41822 2954 ft 126 kts 90°
2026-05-04 18:18 53.82186 11.43306 2955 ft 126 kts 90°
2026-05-04 18:18 53.82172 11.44797 2953 ft 127 kts 90°
2026-05-04 18:18 53.82162 11.46294 2954 ft 127 kts 91°
2026-05-04 18:18 53.82152 11.47786 2953 ft 126 kts 90°
2026-05-04 18:19 53.82123 11.50753 2952 ft 126 kts 91°
2026-05-04 18:19 53.82113 11.52241 2951 ft 126 kts 90°
2026-05-04 18:19 53.82097 11.53705 2951 ft 126 kts 90°
2026-05-04 18:20 53.82083 11.55182 2953 ft 125 kts 91°
2026-05-04 18:20 53.82075 11.56664 2953 ft 126 kts 91°
2026-05-04 18:20 53.82066 11.58160 2946 ft 127 kts 91°
2026-05-04 18:20 53.82055 11.59651 2946 ft 126 kts 91°
2026-05-04 18:21 53.82050 11.61140 2949 ft 127 kts 90°
2026-05-04 18:21 53.82047 11.62630 2948 ft 127 kts 91°
2026-05-04 18:21 53.82041 11.64124 2948 ft 127 kts 91°
2026-05-04 18:21 53.82036 11.65623 2951 ft 128 kts 91°
2026-05-04 18:22 53.82029 11.67127 2952 ft 128 kts 91°
2026-05-04 18:22 53.82019 11.68630 2952 ft 128 kts 91°
2026-05-04 18:22 53.82008 11.70141 2952 ft 128 kts 91°
2026-05-04 18:22 53.81990 11.71649 2953 ft 128 kts 91°
2026-05-04 18:23 53.81981 11.73169 2952 ft 130 kts 91°
2026-05-04 18:23 53.81973 11.74683 2952 ft 130 kts 90°
2026-05-04 18:23 53.81958 11.76209 2952 ft 130 kts 91°
2026-05-04 18:23 53.81946 11.77734 2952 ft 129 kts 91°
2026-05-04 18:24 53.81937 11.79255 2950 ft 129 kts 91°
2026-05-04 18:24 53.81931 11.80770 2949 ft 128 kts 91°
2026-05-04 18:24 53.81925 11.82277 2950 ft 129 kts 90°
2026-05-04 18:24 53.81915 11.83800 2950 ft 129 kts 90°
2026-05-04 18:25 53.81907 11.85321 2951 ft 129 kts 91°
2026-05-04 18:25 53.81903 11.86835 2950 ft 128 kts 91°
2026-05-04 18:25 53.81896 11.88341 2950 ft 128 kts 91°
2026-05-04 18:25 53.81886 11.89846 2948 ft 128 kts 91°
2026-05-04 18:26 53.81876 11.91345 2948 ft 127 kts 91°
2026-05-04 18:26 53.81867 11.92840 2947 ft 127 kts 91°
2026-05-04 18:26 53.81858 11.94335 2946 ft 127 kts 91°
2026-05-04 18:26 53.81851 11.95830 2947 ft 127 kts 91°
2026-05-04 18:27 53.81844 11.97328 2944 ft 127 kts 91°
2026-05-04 18:27 53.81833 11.98804 2944 ft 126 kts 91°
2026-05-04 18:27 53.81828 12.00295 2948 ft 127 kts 91°
2026-05-04 18:27 53.81826 12.01792 2948 ft 128 kts 90°
2026-05-04 18:28 53.81817 12.03292 2949 ft 127 kts 91°
2026-05-04 18:28 53.81810 12.04789 2948 ft 127 kts 91°
2026-05-04 18:28 53.81800 12.06281 2950 ft 127 kts 91°
2026-05-04 18:28 53.81786 12.07781 2950 ft 127 kts 91°
2026-05-04 18:29 53.81775 12.09280 2945 ft 127 kts 90°
2026-05-04 18:29 53.81759 12.10771 2946 ft 127 kts 91°
2026-05-04 18:29 53.81738 12.12266 2947 ft 127 kts 91°
2026-05-04 18:29 53.81723 12.13747 2944 ft 125 kts 91°
2026-05-04 18:30 53.81690 12.16667 2946 ft 126 kts 91°
2026-05-04 18:30 53.81668 12.18151 2946 ft 126 kts 91°
2026-05-04 18:30 53.81654 12.19640 2944 ft 127 kts 91°
2026-05-04 18:31 53.81636 12.21133 2945 ft 127 kts 91°
2026-05-04 18:31 53.81617 12.22626 2947 ft 127 kts 90°
2026-05-04 18:31 53.81599 12.24124 2947 ft 127 kts 90°
2026-05-04 18:31 53.81577 12.25618 2947 ft 127 kts 91°
2026-05-04 18:32 53.81556 12.27105 2946 ft 126 kts 91°
2026-05-04 18:32 53.81540 12.28594 2947 ft 127 kts 91°
2026-05-04 18:32 53.81524 12.30099 2946 ft 127 kts 91°
2026-05-04 18:32 53.81500 12.31595 2946 ft 127 kts 91°
2026-05-04 18:33 53.81479 12.33066 2949 ft 127 kts 91°
2026-05-04 18:33 53.81463 12.34568 2949 ft 128 kts 91°
2026-05-04 18:33 53.81448 12.36071 2948 ft 127 kts 91°
2026-05-04 18:33 53.81433 12.37570 2949 ft 128 kts 91°
2026-05-04 18:34 53.81415 12.39080 2948 ft 129 kts 91°
2026-05-04 18:34 53.81401 12.40590 2946 ft 128 kts 91°
2026-05-04 18:34 53.81392 12.42090 2946 ft 127 kts 91°
2026-05-04 18:34 53.81377 12.43588 2947 ft 128 kts 91°
2026-05-04 18:35 53.81358 12.45094 2946 ft 128 kts 91°
2026-05-04 18:35 53.81344 12.46597 2946 ft 127 kts 90°
2026-05-04 18:35 53.81332 12.48094 2946 ft 127 kts 91°
2026-05-04 18:35 53.81318 12.49590 2945 ft 127 kts 91°
2026-05-04 18:36 53.81301 12.51077 2949 ft 126 kts 91°
2026-05-04 18:36 53.81287 12.52566 2947 ft 126 kts 91°
2026-05-04 18:36 53.81270 12.54048 2946 ft 126 kts 91°
2026-05-04 18:36 53.81255 12.55527 2947 ft 126 kts 91°
2026-05-04 18:37 53.81241 12.56988 2946 ft 126 kts 91°
2026-05-04 18:37 53.81224 12.58472 2947 ft 126 kts 91°
2026-05-04 18:37 53.81206 12.59963 2948 ft 127 kts 91°
2026-05-04 18:37 53.81189 12.61457 2948 ft 127 kts 91°
2026-05-04 18:38 53.81172 12.62949 2948 ft 127 kts 91°
2026-05-04 18:38 53.81155 12.64432 2943 ft 125 kts 91°
2026-05-04 18:38 53.81137 12.65900 2943 ft 124 kts 91°
2026-05-04 18:38 53.81116 12.67360 2944 ft 124 kts 91°
2026-05-04 18:39 53.81097 12.68821 2944 ft 125 kts 91°
2026-05-04 18:39 53.81077 12.70289 2945 ft 124 kts 91°
2026-05-04 18:39 53.81059 12.71742 2945 ft 125 kts 91°
2026-05-04 18:39 53.81037 12.73215 2944 ft 125 kts 91°
2026-05-04 18:40 53.81014 12.74677 2947 ft 125 kts 91°
2026-05-04 18:40 53.80999 12.76149 2946 ft 125 kts 91°
2026-05-04 18:40 53.80985 12.77624 2947 ft 125 kts 91°
2026-05-04 18:40 53.80969 12.79098 2946 ft 125 kts 91°
2026-05-04 18:41 53.80956 12.80560 2947 ft 125 kts 91°
2026-05-04 18:41 53.80938 12.82034 2947 ft 125 kts 91°
2026-05-04 18:41 53.80922 12.83505 2946 ft 125 kts 91°
2026-05-04 18:41 53.80904 12.84975 2952 ft 125 kts 91°
2026-05-04 18:42 53.80883 12.86457 2949 ft 126 kts 91°
2026-05-04 18:42 53.80862 12.87948 2950 ft 127 kts 91°
2026-05-04 18:42 53.80844 12.89446 2951 ft 127 kts 91°
2026-05-04 18:42 53.80826 12.90949 2951 ft 128 kts 91°
2026-05-04 18:43 53.80808 12.92446 2952 ft 127 kts 91°
2026-05-04 18:43 53.80784 12.93928 2951 ft 128 kts 91°
2026-05-04 18:43 53.80759 12.95435 2952 ft 128 kts 91°
2026-05-04 18:43 53.80738 12.96946 2952 ft 128 kts 91°
2026-05-04 18:44 53.80721 12.98456 2952 ft 128 kts 91°
2026-05-04 18:44 53.80714 12.98966 2951 ft 128 kts 91°
2026-05-04 18:44 53.80673 13.01472 2949 ft 128 kts 91°
2026-05-04 18:44 53.80654 13.02971 2950 ft 128 kts 91°
2026-05-04 18:45 53.80638 13.04480 2951 ft 128 kts 91°
2026-05-04 18:45 53.80618 13.05992 2951 ft 129 kts 91°
2026-05-04 18:45 53.80593 13.07502 2951 ft 128 kts 91°
2026-05-04 18:45 53.80569 13.09002 2951 ft 128 kts 91°
2026-05-04 18:46 53.80545 13.10505 2951 ft 128 kts 91°
2026-05-04 18:46 53.80519 13.12000 2950 ft 128 kts 91°
2026-05-04 18:46 53.80493 13.13511 2951 ft 129 kts 91°
2026-05-04 18:46 53.80467 13.15025 2952 ft 128 kts 91°
2026-05-04 18:47 53.80444 13.16534 2951 ft 128 kts 91°
2026-05-04 18:47 53.80421 13.18042 2952 ft 128 kts 91°
2026-05-04 18:47 53.80394 13.19545 2952 ft 128 kts 91°
2026-05-04 18:47 53.80369 13.21033 2953 ft 128 kts 91°
2026-05-04 18:48 53.80345 13.22540 2951 ft 129 kts 91°
2026-05-04 18:48 53.80316 13.24052 2951 ft 128 kts 91°
2026-05-04 18:48 53.80287 13.25558 2952 ft 128 kts 91°
2026-05-04 18:48 53.80254 13.27059 2951 ft 127 kts 91°
2026-05-04 18:49 53.80221 13.28554 2951 ft 127 kts 91°
2026-05-04 18:49 53.80193 13.30058 2952 ft 129 kts 91°
2026-05-04 18:49 53.80166 13.31577 2953 ft 129 kts 91°
2026-05-04 18:49 53.80137 13.33089 2952 ft 128 kts 91°
2026-05-04 18:50 53.80111 13.34595 2952 ft 128 kts 91°
2026-05-04 18:50 53.80082 13.36100 2950 ft 128 kts 91°
2026-05-04 18:50 53.80057 13.37599 2950 ft 128 kts 91°
2026-05-04 18:50 53.80031 13.39106 2950 ft 128 kts 91°
2026-05-04 18:51 53.80002 13.40615 2950 ft 128 kts 91°
2026-05-04 18:51 53.79974 13.42120 2950 ft 128 kts 91°
2026-05-04 18:51 53.79944 13.43627 2951 ft 128 kts 91°
2026-05-04 18:51 53.79916 13.45136 2951 ft 129 kts 91°
2026-05-04 18:52 53.79897 13.46137 2951 ft 128 kts 91°
2026-05-04 18:52 53.79868 13.47643 2951 ft 128 kts 91°
2026-05-04 18:52 53.79843 13.49147 2953 ft 128 kts 91°
2026-05-04 18:52 53.79808 13.51130 2952 ft 127 kts 89°
2026-05-04 18:53 53.79870 13.52130 2949 ft 126 kts 80°
2026-05-04 18:53 53.80038 13.53589 2947 ft 126 kts 76°
2026-05-04 18:53 53.80216 13.55036 2946 ft 126 kts 76°
2026-05-04 18:53 53.80397 13.56487 2948 ft 127 kts 76°
2026-05-04 18:54 53.80582 13.57947 2951 ft 127 kts 76°
2026-05-04 18:54 53.80761 13.59403 2952 ft 126 kts 76°
2026-05-04 18:54 53.80941 13.60856 2953 ft 126 kts 76°
2026-05-04 18:54 53.81123 13.62307 2954 ft 126 kts 76°
2026-05-04 18:55 53.81305 13.63766 2954 ft 126 kts 76°
2026-05-04 18:55 53.81654 13.66655 2952 ft 126 kts 81°
2026-05-04 18:55 53.81723 13.68136 2952 ft 126 kts 86°
2026-05-04 18:56 53.81728 13.69624 2953 ft 127 kts 89°
2026-05-04 18:56 53.81723 13.71117 2950 ft 127 kts 90°
2026-05-04 18:56 53.81730 13.72602 2950 ft 126 kts 89°
2026-05-04 18:56 53.81736 13.74085 2951 ft 126 kts 89°
2026-05-04 18:57 53.81738 13.75570 2951 ft 126 kts 89°
2026-05-04 18:57 53.81743 13.77060 2951 ft 127 kts 89°
2026-05-04 18:57 53.81750 13.78552 2951 ft 127 kts 87°
2026-05-04 18:57 53.81807 13.80040 2951 ft 126 kts 85°
2026-05-04 18:58 53.81870 13.81530 2952 ft 127 kts 85°
2026-05-04 18:58 53.81931 13.83022 2952 ft 127 kts 85°
2026-05-04 18:58 53.81990 13.84508 2952 ft 126 kts 85°
2026-05-04 18:58 53.82048 13.85992 2952 ft 126 kts 85°
2026-05-04 18:59 53.82109 13.87476 2952 ft 127 kts 85°
2026-05-04 18:59 53.82170 13.88949 2951 ft 127 kts 85°
2026-05-04 18:59 53.82235 13.90445 2952 ft 127 kts 85°
2026-05-04 18:59 53.82299 13.91936 2953 ft 127 kts 85°
2026-05-04 19:00 53.82362 13.93430 2954 ft 127 kts 85°
2026-05-04 19:00 53.82427 13.94924 2953 ft 127 kts 85°
2026-05-04 19:00 53.82487 13.96421 2954 ft 127 kts 85°
2026-05-04 19:00 53.82548 13.97912 2954 ft 127 kts 85°
2026-05-04 19:01 53.82614 13.99405 2954 ft 127 kts 85°
2026-05-04 19:01 53.82679 14.00895 2954 ft 127 kts 85°
2026-05-04 19:01 53.82742 14.02381 2953 ft 126 kts 85°
2026-05-04 19:01 53.82805 14.03853 2953 ft 127 kts 85°
2026-05-04 19:02 53.82870 14.05337 2952 ft 126 kts 85°
2026-05-04 19:02 53.82932 14.06818 2945 ft 126 kts 85°
2026-05-04 19:02 53.82998 14.08308 2944 ft 127 kts 85°
2026-05-04 19:02 53.83061 14.09796 2944 ft 126 kts 85°
2026-05-04 19:03 53.83121 14.11276 2945 ft 126 kts 85°
2026-05-04 19:03 53.83183 14.12758 2944 ft 126 kts 85°
2026-05-04 19:03 53.83244 14.14245 2945 ft 126 kts 85°
2026-05-04 19:03 53.83306 14.15733 2945 ft 127 kts 85°
2026-05-04 19:04 53.83366 14.17224 2945 ft 127 kts 85°
2026-05-04 19:04 53.83425 14.18717 2946 ft 127 kts 86°
2026-05-04 19:04 53.83186 14.20119 2940 ft 125 kts 123°
2026-05-04 19:04 53.82754 14.21384 2942 ft 126 kts 121°
2026-05-04 19:05 53.82326 14.22677 2941 ft 126 kts 121°
2026-05-04 19:05 53.81730 14.23694 2941 ft 122 kts 153°
2026-05-04 19:05 53.80985 14.24470 2818 ft 130 kts 151°
2026-05-04 19:05 53.80166 14.25172 2672 ft 129 kts 159°
2026-05-04 19:06 53.79402 14.25776 2517 ft 117 kts 158°
2026-05-04 19:06 53.78679 14.26354 2359 ft 113 kts 158°
2026-05-04 19:06 53.77971 14.26911 2197 ft 111 kts 159°
2026-05-04 19:06 53.77230 14.27053 2038 ft 107 kts 187°
2026-05-04 19:07 53.76491 14.27015 1952 ft 102 kts 185°
2026-05-04 19:07 53.75816 14.26990 1939 ft 92 kts 185°
2026-05-04 19:07 53.75201 14.26965 1938 ft 85 kts 185°
2026-05-04 19:07 53.74694 14.26704 1939 ft 71 kts 244°
2026-05-04 19:08 53.74661 14.25945 1937 ft 63 kts 298°
2026-05-04 19:08 53.75029 14.25642 1945 ft 65 kts 332°
2026-05-04 19:08 53.75532 14.25252 1972 ft 95 kts 333°
2026-05-04 19:08 53.76147 14.24796 1964 ft 94 kts 334°
2026-05-04 19:09 53.76718 14.24399 1956 ft 84 kts 334°
2026-05-04 19:09 53.77254 14.24035 1881 ft 84 kts 337°
2026-05-04 19:09 53.77800 14.23712 1861 ft 82 kts 340°
2026-05-04 19:09 53.78361 14.23459 1815 ft 87 kts 342°
2026-05-04 19:10 53.78972 14.23183 1783 ft 100 kts 341°
2026-05-04 19:10 53.79677 14.22840 1913 ft 105 kts 341°
2026-05-04 19:10 53.80356 14.22523 1883 ft 97 kts 341°
2026-05-04 19:10 53.81015 14.22344 1807 ft 95 kts 350°
2026-05-04 19:11 53.81664 14.22251 1737 ft 92 kts 353°
2026-05-04 19:11 53.82293 14.22187 1692 ft 91 kts 353°
2026-05-04 19:11 53.82914 14.22148 1646 ft 90 kts 356°
2026-05-04 19:11 53.83542 14.22129 1605 ft 88 kts 357°
2026-05-04 19:12 53.84166 14.22128 1540 ft 89 kts 354°